[[{"header":{"parameterUnit":"m.s-1","parameterCategory":1,"la1":30.2991,"la2":30.254,"lo1":-89.0895,"lo2":-89.0444,"dy":0.0017,"dx":0.0017,"nx":28,"ny":28,"refTime":"2023-09-24T03:00:00:Z","depth":0,"parameterNumber":2,"parameterNumberName":"U-component_of_WINDS"},"data":[0,0,0,0,0,0,0,0,0,0,0,0,0,0,0,0,0,0,0,0,0,0,0,0,0,0,0,0,0,0,0,0,0,0,0,0,0,0,0,0,0,0,0,0,0,0,0,0,0,0,0,0,0,0,0,0,0,0,1.4387,1.4387,0,1.4369,1.4369,1.4369,1.4338,1.4337,1.4337,1.4336,1.4316,1.4316,1.4316,0,0,0,0,0,0,0,0,0,0,0,0,0,1.4391,1.4391,1.4387,1.4387,1.4387,1.4369,1.4369,1.4369,1.4338,1.4337,1.4337,1.4336,1.4316,1.4316,1.4316,0,0,0,0,0,0,0,0,0,0,0,0,0,1.4382,1.4391,1.4387,1.4369,1.4367,1.4369,1.4369,1.4369,1.4338,1.4337,1.4336,1.4336,1.4316,1.4316,1.4316,1.4334,0,0,1.4316,1.4316,0,0,0,0,0,0,0,0,1.4383,1.4382,1.4372,1.437,1.4368,1.4355,1.4363,1.4357,1.4338,1.4349,1.4336,1.4335,1.433,1.4329,1.4327,1.4333,1.4332,1.4316,1.4316,1.4316,1.4316,0,0,0,0,0,0,0,1.4384,1.4383,1.438,1.4372,1.437,1.4361,1.4359,1.4362,1.4344,1.4348,1.4346,1.4344,1.4329,1.4327,1.4326,1.4332,1.4316,1.4316,1.4316,1.4317,1.4346,1.4347,0,0,0,0,0,0,1.4387,1.4384,1.438,1.4379,1.4374,1.4361,1.4359,1.436,1.4344,1.4341,1.4345,1.4343,1.4328,1.4326,1.4326,1.4342,1.4316,1.4317,1.4317,1.4346,1.4347,1.4347,0,0,0,0,0,0,1.4387,1.4387,1.4381,1.4381,1.4379,1.4362,1.4364,1.436,1.4359,1.4342,1.4339,1.4347,1.4327,1.4326,1.4331,1.4341,1.4317,1.4317,1.4345,1.4346,1.4347,1.4377,0,0,0,0,0,0,1.4388,1.4387,1.4395,1.4381,1.438,1.4388,1.4364,1.436,1.4359,1.4356,1.4343,1.434,1.4326,1.4331,1.4331,1.4341,1.4317,1.4344,1.4345,1.4347,1.4375,1.4379,1.4383,0,0,0,0,0,1.4388,1.4405,1.4396,1.4395,1.4389,1.4389,1.4388,1.4372,1.436,1.4366,1.4355,1.434,1.434,1.4332,1.4332,1.4341,1.4343,1.4345,1.4347,1.4373,1.4378,1.4383,0,0,0,0,0,0,1.4421,1.4403,1.4392,1.4406,1.4399,1.4384,1.4392,1.4378,1.4375,1.4372,1.4352,1.4349,1.4357,1.435,1.4341,1.4355,1.4339,1.4341,1.436,1.4364,1.4368,1.4369,1.4317,0,0,0,0,0,1.4429,1.4432,1.4416,1.4429,1.4426,1.4409,1.4409,1.4397,1.4389,1.4386,1.4376,1.4368,1.4365,1.4365,1.4362,1.4374,1.4369,1.438,1.4384,1.4387,1.4388,1.4391,1.4395,1.4353,1.4353,1.4353,0,0,1.4447,1.4438,1.4441,1.4435,1.4429,1.443,1.4407,1.4411,1.4411,1.4387,1.439,1.4382,1.4372,1.438,1.4383,1.4374,1.4399,1.4389,1.4392,1.4392,1.4393,1.4397,1.4401,1.4354,1.4354,1.4354,0,0,1.4481,1.4475,1.4483,1.4477,1.4467,1.4455,1.4457,1.4443,1.4437,1.444,1.4421,1.4421,1.4418,1.4411,1.4407,1.4433,1.4419,1.4433,1.4452,1.4455,1.4458,1.4461,1.4468,1.4471,1.4435,1.4435,1.4435,0,1.4504,1.4507,1.449,1.4493,1.449,1.4467,1.4474,1.4469,1.4458,1.4456,1.4446,1.4441,1.4432,1.4437,1.4443,1.4441,1.4441,1.4434,1.4459,1.4462,1.4464,1.4471,1.4474,1.4436,1.4436,1.4436,1.4436,0,1.4534,1.4536,1.4544,1.4533,1.4531,1.4537,1.4519,1.4518,1.4506,1.4495,1.4497,1.4486,1.4479,1.4479,1.4468,1.4481,1.4475,1.4463,1.4446,1.447,1.4476,1.4478,1.4439,1.4438,1.4438,1.4437,0,0,1.4589,1.4567,1.457,1.4564,1.455,1.455,1.4553,1.4546,1.4545,1.4538,1.4538,1.4535,1.4522,1.4518,1.4505,1.4508,1.4526,1.4494,1.4493,1.4499,1.4536,1.4545,1.4548,1.4516,1.4517,1.4517,1.4536,0,1.4617,1.4622,1.4605,1.4614,1.4613,1.459,1.4593,1.4583,1.4572,1.4569,1.4557,1.4554,1.4539,1.4535,1.4537,1.4523,1.4533,1.4522,1.4514,1.4514,1.4516,1.4551,1.4561,1.458,1.4539,1.4539,1.4539,0,1.4652,1.4645,1.4654,1.4636,1.4635,1.4638,1.4628,1.4626,1.4614,1.4605,1.4599,1.4583,1.4583,1.4567,1.4565,1.4558,1.4554,1.4547,1.4547,1.4545,1.4528,1.4548,1.4586,1.4588,1.4543,1.4543,1.4543,0,1.4687,1.4681,1.4684,1.468,1.466,1.4662,1.4653,1.4641,1.4636,1.4628,1.4624,1.4616,1.4611,1.4605,1.4586,1.4577,1.4585,1.4569,1.4577,1.4577,1.4579,1.4579,1.4615,1.4579,1.4579,1.4579,1.4579,0,1.472,1.4725,1.4699,1.4701,1.4705,1.4685,1.4689,1.4679,1.4667,1.4665,1.4645,1.4643,1.462,1.4615,1.4601,1.46,1.4598,1.459,1.4586,1.4591,1.4592,1.4587,1.4585,1.458,1.4579,1.4579,1.4579,0,1.4761,1.4744,1.4745,1.4726,1.4721,1.4724,1.4707,1.4707,1.4694,1.4691,1.4689,1.4669,1.4661,1.4643,1.4631,1.4621,1.4623,1.4617,1.4627,1.4625,1.4632,1.4631,1.4665,1.4668,1.4632,1.4633,1.4633,0,1.4782,1.4785,1.4765,1.4762,1.4755,1.4751,1.4746,1.4726,1.4721,1.4706,1.4707,1.4698,1.469,1.4679,1.4662,1.4652,1.4645,1.4657,1.4643,1.4647,1.4642,1.4641,1.464,1.466,1.466,1.4661,1.4661,0,1.482,1.4811,1.4805,1.4796,1.479,1.4782,1.4772,1.477,1.4747,1.4743,1.4735,1.4729,1.4716,1.4706,1.4693,1.4683,1.4668,1.4666,1.4666,1.4671,1.4676,1.4671,1.4634,1.4665,1.4665,1.4664,1.4664,1.4664,1.485,1.4851,1.4836,1.4829,1.482,1.481,1.4808,1.4794,1.4788,1.4775,1.4764,1.4756,1.4741,1.4722,1.4713,1.4706,1.4698,1.47,1.47,1.47,1.4702,1.4678,1.4704,1.4704,1.4703,1.4703,1.4703,0,1.4886,1.4875,1.4869,1.4855,1.4849,1.4835,1.4822,1.4818,1.4812,1.4799,1.4791,1.4781,1.4771,1.4753,1.4741,1.4738,1.4731,1.4736,1.4735,1.4732,1.4711,1.471,1.4742,1.4742,1.4742,1.4742,1.4742,1.4742,1.4903,1.4902,1.4891,1.4884,1.4873,1.4866,1.486,1.485,1.4839,1.4829,1.482,1.4808,1.4793,1.4779,1.4769,1.4763,1.4759,1.4766,1.4759,1.4738,1.4734,1.4731,1.473,1.4766,1.4766,1.4781,1.4781,1.4781]},{"header":{"parameterUnit":"m.s-1","parameterCategory":1,"la1":30.2991,"la2":30.254,"lo1":-89.0895,"lo2":-89.0444,"dy":0.0017,"dx":0.0017,"nx":28,"ny":28,"refTime":"2023-09-24T03:00:00:Z","depth":0,"parameterNumber":3,"parameterNumberName":"V-component_of_WINDS"},"data":[0,0,0,0,0,0,0,0,0,0,0,0,0,0,0,0,0,0,0,0,0,0,0,0,0,0,0,0,0,0,0,0,0,0,0,0,0,0,0,0,0,0,0,0,0,0,0,0,0,0,0,0,0,0,0,0,0,0,3.1247,3.1247,0,3.1227,3.1227,3.1227,3.1167,3.1165,3.1164,3.1163,3.1143,3.1143,3.1144,0,0,0,0,0,0,0,0,0,0,0,0,0,3.1231,3.1232,3.1247,3.1247,3.1246,3.1227,3.1227,3.1227,3.1167,3.1165,3.1164,3.1162,3.1142,3.1143,3.1144,0,0,0,0,0,0,0,0,0,0,0,0,0,3.1227,3.1232,3.1247,3.1214,3.1211,3.1227,3.1227,3.1227,3.1167,3.1165,3.1163,3.1162,3.1142,3.1143,3.1144,3.119,0,0,3.1147,3.1148,0,0,0,0,0,0,0,0,3.1228,3.1228,3.1219,3.1217,3.1213,3.1197,3.1214,3.1215,3.1168,3.1184,3.1163,3.1161,3.1162,3.1162,3.1162,3.119,3.1189,3.1147,3.1148,3.1149,3.1149,0,0,0,0,0,0,0,3.1228,3.1229,3.1239,3.1219,3.1215,3.12,3.1197,3.1214,3.1185,3.1182,3.1178,3.1177,3.116,3.1162,3.1162,3.1188,3.1147,3.1148,3.1149,3.1149,3.125,3.1252,0,0,0,0,0,0,3.1233,3.1229,3.124,3.1239,3.1216,3.1202,3.1199,3.1204,3.1184,3.1179,3.1178,3.1174,3.1161,3.116,3.1161,3.1211,3.1149,3.115,3.115,3.1248,3.125,3.1252,0,0,0,0,0,0,3.1233,3.1235,3.124,3.1233,3.1232,3.1204,3.1211,3.1205,3.1206,3.1181,3.1176,3.1185,3.1159,3.1159,3.1183,3.121,3.115,3.1151,3.1245,3.1248,3.1251,3.1314,0,0,0,0,0,0,3.1233,3.1235,3.1253,3.1234,3.1233,3.1264,3.1213,3.1206,3.1208,3.1202,3.1186,3.1181,3.1158,3.1182,3.1184,3.121,3.1152,3.1243,3.1247,3.125,3.1309,3.1319,3.1327,0,0,0,0,0,3.1232,3.1272,3.1254,3.1255,3.1254,3.1265,3.1265,3.1237,3.1211,3.1228,3.1211,3.1182,3.1207,3.1185,3.1187,3.1213,3.1241,3.1246,3.125,3.1305,3.1317,3.1327,0,0,0,0,0,0,3.1295,3.1268,3.1248,3.1283,3.1277,3.1255,3.1276,3.1251,3.1252,3.1246,3.1212,3.1208,3.1237,3.1228,3.1203,3.1256,3.1219,3.1224,3.126,3.1271,3.128,3.128,3.1153,0,0,0,0,0,3.1312,3.1324,3.13,3.1333,3.1331,3.1304,3.1308,3.1287,3.1279,3.1276,3.1262,3.1255,3.1261,3.1266,3.1271,3.1309,3.1303,3.1328,3.1337,3.1344,3.1348,3.1365,3.1375,3.1267,3.1267,3.1267,0,0,3.1349,3.1336,3.1345,3.1345,3.1338,3.1349,3.1302,3.1317,3.1325,3.1279,3.1299,3.1289,3.1279,3.1309,3.1322,3.1303,3.1377,3.135,3.1356,3.1356,3.1371,3.1381,3.139,3.1271,3.127,3.1269,0,0,3.1421,3.1414,3.1438,3.1432,3.1422,3.1403,3.141,3.1392,3.1383,3.1403,3.1368,3.1377,3.1389,3.1383,3.1381,3.145,3.1422,3.1453,3.1498,3.1515,3.1523,3.153,3.1553,3.1561,3.1458,3.1458,3.1458,0,3.1468,3.1484,3.1454,3.1471,3.1471,3.1429,3.1453,3.1449,3.1441,3.1441,3.142,3.1433,3.1424,3.1451,3.1467,3.1469,3.1473,3.1453,3.1524,3.1531,3.1538,3.1558,3.1567,3.1461,3.1461,3.1461,3.146,0,3.1541,3.1553,3.1574,3.1566,3.1569,3.1589,3.1562,3.1568,3.1547,3.1531,3.1551,3.1539,3.1539,3.1545,3.1525,3.1568,3.1556,3.1531,3.1492,3.1552,3.1571,3.1579,3.1466,3.1465,3.1464,3.1463,0,0,3.165,3.1625,3.1633,3.1628,3.1614,3.1622,3.1641,3.164,3.1645,3.1641,3.1654,3.1665,3.164,3.1639,3.1618,3.1633,3.1685,3.1605,3.1604,3.1618,3.173,3.1748,3.1757,3.1667,3.1669,3.167,3.173,0,3.1716,3.1745,3.1719,3.1753,3.1762,3.1723,3.1738,3.173,3.1716,3.1722,3.1706,3.1713,3.1681,3.1679,3.1693,3.1676,3.1707,3.1672,3.1677,3.1678,3.1678,3.1768,3.1787,3.1844,3.1737,3.1739,3.1739,0,3.1797,3.1795,3.183,3.1811,3.1814,3.1829,3.1825,3.1832,3.1822,3.181,3.1808,3.1782,3.1798,3.1762,3.1782,3.1758,3.1759,3.1752,3.1753,3.175,3.1711,3.1765,3.1862,3.1869,3.1751,3.175,3.1749,0,3.187,3.1877,3.1898,3.1895,3.1875,3.1886,3.1878,3.1866,3.1867,3.1864,3.1864,3.1864,3.1863,3.1863,3.1838,3.1814,3.186,3.1823,3.1849,3.1849,3.1858,3.1858,3.1954,3.1864,3.1863,3.1863,3.1863,0,3.1945,3.1967,3.193,3.1943,3.1966,3.1936,3.1959,3.1947,3.1937,3.1946,3.1913,3.1922,3.1888,3.1894,3.1874,3.1892,3.1893,3.1882,3.1876,3.1884,3.1885,3.1882,3.1877,3.1866,3.1865,3.1865,3.1864,0,3.2029,3.2006,3.2026,3.2005,3.2,3.2018,3.1999,3.2009,3.1993,3.2005,3.2006,3.198,3.1984,3.1959,3.1959,3.1946,3.1972,3.1961,3.1975,3.1971,3.1997,3.1994,3.2093,3.2104,3.201,3.201,3.2011,0,3.2077,3.2093,3.2074,3.2077,3.207,3.2077,3.2078,3.2048,3.205,3.2039,3.2051,3.2052,3.2052,3.2061,3.2041,3.2041,3.2027,3.2062,3.2027,3.2033,3.2025,3.2023,3.2023,3.2069,3.207,3.2071,3.2072,0,3.2164,3.2152,3.2154,3.2152,3.2153,3.215,3.2145,3.215,3.2118,3.2122,3.2126,3.2125,3.2125,3.2126,3.2122,3.2113,3.2086,3.2083,3.2089,3.2095,3.2102,3.2096,3.1992,3.208,3.208,3.2079,3.2078,3.2078,3.223,3.2241,3.2229,3.2232,3.2225,3.2221,3.2229,3.2213,3.2216,3.2212,3.2195,3.2202,3.219,3.2181,3.2175,3.2179,3.2162,3.2171,3.2173,3.2175,3.2178,3.2103,3.2178,3.2178,3.2178,3.2178,3.2177,0,3.2313,3.2302,3.2306,3.2299,3.2301,3.2277,3.227,3.2273,3.2279,3.2271,3.2271,3.2274,3.2275,3.2256,3.2254,3.2261,3.2249,3.2261,3.2259,3.2257,3.2195,3.2189,3.2271,3.2271,3.2271,3.2271,3.2271,3.2271,3.2356,3.2373,3.2359,3.2372,3.2361,3.2367,3.2365,3.236,3.2353,3.2358,3.2359,3.2346,3.2333,3.233,3.2329,3.2324,3.2323,3.234,3.2329,3.2271,3.2262,3.2253,3.2247,3.234,3.2341,3.2391,3.2391,3.2392]}]]